Details From KLBB - LUBBOCK PRESTON SMITH INTL
To KMDD - MIDLAND AIRPARK
Flight Number -
Tags generated
Created
Modified
Stats Distance 99 nm / 184 km
Max Altitude 10,700 ft / 3,261 m
Waypoints 3
Social Downloads 1
Likes 0
Share VATSIM

Download

Looking for another format? Having issues loading an existing format? Contact us
Advertisement - Login to hide

Notes

Basic altitude profile: - Ascent Rate: 2500ft/min - Ascent Speed: 250kts - Cruise Altitude: 35000ft - Cruise Speed: 420kts - Descent Rate: 1500ft/min - Descent Speed: 250kts Options: - Use NATs: yes - Use PACOTS: yes - Use low airways: yes - Use high airways: yes

Route

KLBB WELCH KMDD

ID Type Via Altitude Latitude Longitude Leg Dist Tot Dist Heading (true) Name
O KLBB APT - 0 ft / 0 m 33.66156˚ -101.82068˚ - 0 nm - LUBBOCK PRESTON SMITH INTL
WELCH FIX - 10,700 ft / 3,261 m 32.94944˚ -102.03857˚ 44 nm 44 nm 194° / 194° -
O KMDD APT - 0 ft / 0 m 32.03619˚ -102.10102˚ 54 nm 99 nm 183° / 183° MIDLAND AIRPARK

Altitude Profile

Advertisement - Login to hide

KLBB

Details ICAO KLBB (LBB)
Name LUBBOCK PRESTON SMITH INTL
Region United States
Timezone America/Chicago (UTC-5.0)
Stats Elevation 3,282 ft / 1,000 m (AMSL)
Location 33.661557° -101.820684°
Runways 3
Magnetic Variation 6.099° E

METAR

KLBB 260353Z 23008KT 10SM CLR 28/07 A2990 RMK AO2 SLP066 T02780067

Decode

TAF

TAF KLBB 252320Z 2600/2624 19010KT P6SM FEW120

Decode

Departure Runways

ID Width Length Bearing (true) Bearing (mag) Surface Threshold Offset Overrun Length
08 150 ft / 46 m 7,985 ft / 2,434 m 89.66° 83.56° Concrete 200 ft / 61 m 0 ft / 0 m
17L 75 ft / 23 m 2,899 ft / 884 m 179.65° 173.55° Asphalt 0 ft / 0 m 0 ft / 0 m
17R 150 ft / 46 m 11,530 ft / 3,514 m 179.67° 173.57° Concrete 0 ft / 0 m 0 ft / 0 m
26 150 ft / 46 m 7,985 ft / 2,434 m 269.67° 263.57° Concrete 0 ft / 0 m 0 ft / 0 m
35L 150 ft / 46 m 11,530 ft / 3,514 m 359.67° 353.57° Concrete 0 ft / 0 m 0 ft / 0 m
35R 75 ft / 23 m 2,899 ft / 884 m 359.65° 353.55° Asphalt 0 ft / 0 m 0 ft / 0 m

KMDD

Details ICAO KMDD
Name MIDLAND AIRPARK
Region United States
Timezone America/Chicago (UTC-5.0)
Stats Elevation 2,803 ft / 854 m (AMSL)
Location 32.036194° -102.101022°
Runways 2
Magnetic Variation 6.157° E

METAR

KMDD 260415Z AUTO 17017G20KT 10SM 31/13 A2992 RMK AO2 T03060125

Decode

TAF

Not found

Destination Runways

ID Width Length Bearing (true) Bearing (mag) Surface Threshold Offset Overrun Length
07 75 ft / 23 m 5,014 ft / 1,528 m 74.89° 68.73° Asphalt 0 ft / 0 m 0 ft / 0 m
16 75 ft / 23 m 3,988 ft / 1,216 m 165.00° 158.84° Asphalt 0 ft / 0 m 0 ft / 0 m
25 75 ft / 23 m 5,014 ft / 1,528 m 254.90° 248.74° Asphalt 0 ft / 0 m 0 ft / 0 m
34 75 ft / 23 m 3,988 ft / 1,216 m 345.00° 338.84° Asphalt 0 ft / 0 m 0 ft / 0 m